Westminster, MD

4:03 PM EST on November 18, 2019 (GMT -0500)
Carroll County Regional-Poage

Weather History for KDMW - September, 2019

Change the Weather History Date:

Friday, September 13, 2019

  Actual Average (WUND) Record (WUND)
Temperature  
Mean Temperature 68 °F -  
Max Temperature 73 °F - - (-1)
Min Temperature 64 °F - - (-1)
Cooling Degree Days 4    
Growing Degree Days 18 (Base 50)    
Moisture  
Dew Point 61 °F    
Average Humidity 81    
Maximum Humidity 94    
Minimum Humidity 64    
Precipitation  
Precipitation 0.01 in - - ()
Sea Level Pressure  
Sea Level Pressure 30.35 in    
Wind  
Wind Speed 5 mph (ESE)    
Max Wind Speed 10 mph    
Max Gust Speed 18 mph    
Visibility 9 miles    
Events Rain    
Averages and records for this station are not official NWS values.
T = Trace of Precipitation, MM = Missing Value Source: NWS Daily Summary

Daily Weather History Graph

Daily Weather History Graph

Search for Another Location

Airport or City:

Astronomy

Sep. 13, 2019 Rise Set
Actual Time 6:47 AM EDT 7:20 PM EDT
Civil Twilight 6:19 AM EDT 7:47 PM EDT
Nautical Twilight 5:47 AM EDT 8:19 PM EDT
Astronomical Twilight 5:15 AM EDT 8:51 PM EDT
Moon 7:32 PM EDT (9/13) 6:02 AM EDT (9/13)
Length of Visible Light 13h 27m
Length of Day
12h 33m
Full, 100% of the Moon is Illuminated
Sep 13
Full
Sep 14
Full
Sep 21
Last Quarter
Sep 28
New
Oct 5
First Quarter

Hourly Weather History & Observations

Time (EDT) Temp. Dew Point Humidity Pressure Visibility Wind Dir Wind Speed Gust Speed Precip Events Conditions
12:00 AM 73.4 °F 71.6 °F 94% 30.21 in 10.0 mi Calm Calm - N/A   Overcast
12:20 AM 73.4 °F 71.6 °F 94% 30.22 in 7.0 mi Calm Calm - N/A Rain Light Rain
12:40 AM 73.4 °F 71.6 °F 94% 30.22 in 7.0 mi East 3.5 mph - 0.01 in Rain Rain
1:00 AM 73.4 °F 71.6 °F 94% 30.23 in 7.0 mi Calm Calm - N/A   Drizzle
1:20 AM 71.6 °F 69.8 °F 94% 30.23 in 7.0 mi ESE 5.8 mph - N/A   Drizzle
1:40 AM 71.6 °F 69.8 °F 94% 30.23 in 7.0 mi East 8.1 mph - N/A Rain Rain
2:00 AM 69.8 °F 68.0 °F 94% 30.24 in 10.0 mi East 3.5 mph - N/A   Overcast
2:20 AM 69.8 °F 66.2 °F 88% 30.25 in 10.0 mi ENE 6.9 mph - N/A   Overcast
2:40 AM 69.8 °F 66.2 °F 88% 30.25 in 7.0 mi East 5.8 mph - N/A   Drizzle
3:00 AM 69.8 °F 66.2 °F 88% 30.25 in 7.0 mi East 8.1 mph - 0.01 in   Drizzle
3:20 AM 68.0 °F 66.2 °F 94% 30.26 in 10.0 mi ESE 8.1 mph - 0.01 in   Light Drizzle
4:00 AM 68.0 °F 66.2 °F 94% 30.27 in 7.0 mi ESE 8.1 mph - N/A   Overcast
4:20 AM 66.2 °F 64.4 °F 94% 30.28 in 5.0 mi East 4.6 mph 16.1 mph N/A Rain Rain
4:40 AM 66.2 °F 64.4 °F 94% 30.28 in 3.0 mi East 6.9 mph - N/A   Drizzle
5:00 AM 66.2 °F 64.4 °F 94% 30.29 in 3.0 mi East 4.6 mph - N/A   Drizzle
5:20 AM 64.4 °F 62.6 °F 94% 30.29 in 7.0 mi East 6.9 mph 18.4 mph N/A   Light Drizzle
5:40 AM 64.4 °F 62.6 °F 94% 30.30 in 10.0 mi ESE 5.8 mph - N/A   Overcast
6:00 AM 64.4 °F 62.6 °F 94% 30.30 in 10.0 mi East 8.1 mph - N/A   Overcast
6:20 AM 64.4 °F 62.6 °F 94% 30.32 in 10.0 mi East 5.8 mph - N/A   Overcast
6:40 AM 64.4 °F 62.6 °F 94% 30.32 in 10.0 mi ESE 5.8 mph - N/A   Overcast
7:00 AM 64.4 °F 60.8 °F 88% 30.33 in 10.0 mi ESE 5.8 mph - N/A   Overcast
7:40 AM 64.4 °F 60.8 °F 88% 30.35 in 10.0 mi ESE 6.9 mph - N/A   Overcast
8:00 AM 64.4 °F 60.8 °F 88% 30.35 in 10.0 mi East 5.8 mph - N/A   Overcast
8:20 AM 64.4 °F 60.8 °F 88% 30.36 in 10.0 mi East 4.6 mph - N/A   Overcast
8:40 AM 64.4 °F 60.8 °F 88% 30.35 in 10.0 mi ESE 6.9 mph - N/A   Overcast
9:00 AM 66.2 °F 60.8 °F 83% 30.37 in 10.0 mi ESE 5.8 mph - N/A   Overcast
9:20 AM 66.2 °F 60.8 °F 83% 30.38 in 10.0 mi East 6.9 mph - N/A   Overcast
9:40 AM 64.4 °F 59.0 °F 83% 30.39 in 10.0 mi East 4.6 mph - N/A   Overcast
10:00 AM 66.2 °F 59.0 °F 78% 30.40 in 10.0 mi ESE 10.4 mph - N/A   Overcast
10:20 AM 66.2 °F 60.8 °F 83% 30.40 in 10.0 mi East 4.6 mph - N/A   Overcast
10:40 AM 66.2 °F 59.0 °F 78% 30.40 in 10.0 mi East 8.1 mph - N/A   Overcast
11:00 AM 66.2 °F 59.0 °F 78% 30.40 in 10.0 mi East 8.1 mph - N/A   Overcast
11:20 AM 68.0 °F 59.0 °F 73% 30.40 in 10.0 mi East 8.1 mph - N/A   Overcast
11:40 AM 68.0 °F 59.0 °F 73% 30.40 in 10.0 mi ESE 8.1 mph - N/A   Overcast
12:00 PM 68.0 °F 59.0 °F 73% 30.40 in 10.0 mi ESE 8.1 mph - N/A   Overcast
12:40 PM 68.0 °F 59.0 °F 73% 30.41 in 10.0 mi ESE 6.9 mph - N/A   Overcast
1:20 PM 68.0 °F 59.0 °F 73% 30.41 in 10.0 mi ESE 5.8 mph - N/A   Overcast
1:40 PM 68.0 °F 60.8 °F 78% 30.41 in 10.0 mi ESE 4.6 mph - N/A   Overcast
2:00 PM 68.0 °F 60.8 °F 78% 30.40 in 10.0 mi ESE 5.8 mph - N/A   Overcast
2:20 PM 68.0 °F 60.8 °F 78% 30.40 in 10.0 mi ESE 6.9 mph - N/A   Overcast
2:40 PM 68.0 °F 60.8 °F 78% 30.40 in 10.0 mi ESE 9.2 mph - N/A   Overcast
3:00 PM 68.0 °F 60.8 °F 78% 30.40 in 10.0 mi East 5.8 mph - N/A   Overcast
3:20 PM 68.0 °F 60.8 °F 78% 30.39 in 10.0 mi ESE 8.1 mph - N/A   Overcast
3:40 PM 69.8 °F 60.8 °F 73% 30.39 in 10.0 mi ESE 4.6 mph - N/A   Overcast
4:00 PM 69.8 °F 60.8 °F 73% 30.38 in 10.0 mi ESE 5.8 mph - N/A   Overcast
4:20 PM 69.8 °F 59.0 °F 68% 30.38 in 10.0 mi ESE 4.6 mph - N/A   Overcast
4:40 PM 69.8 °F 57.2 °F 64% 30.39 in 10.0 mi SE 5.8 mph - N/A   Overcast
5:00 PM 69.8 °F 57.2 °F 64% 30.39 in 10.0 mi SE 10.4 mph 16.1 mph N/A   Overcast
5:20 PM 69.8 °F 57.2 °F 64% 30.39 in 10.0 mi ESE 6.9 mph - N/A   Overcast
5:40 PM 69.8 °F 57.2 °F 64% 30.39 in 10.0 mi SE 9.2 mph - N/A   Overcast
6:00 PM 69.8 °F 57.2 °F 64% 30.39 in 10.0 mi ESE 5.8 mph - N/A   Overcast
6:20 PM 68.0 °F 57.2 °F 68% 30.38 in 10.0 mi SE 6.9 mph - N/A   Overcast
6:40 PM 68.0 °F 57.2 °F 68% 30.38 in 10.0 mi SE 4.6 mph - N/A   Overcast
7:00 PM 68.0 °F 57.2 °F 68% 30.38 in 10.0 mi ESE 4.6 mph - N/A   Overcast
7:20 PM 68.0 °F 57.2 °F 68% 30.38 in 10.0 mi SE 5.8 mph - N/A   Overcast
7:40 PM 66.2 °F 57.2 °F 73% 30.38 in 10.0 mi SE 4.6 mph - N/A   Overcast
8:00 PM 66.2 °F 57.2 °F 73% 30.38 in 10.0 mi SE 4.6 mph - N/A   Overcast
8:20 PM 66.2 °F 57.2 °F 73% 30.38 in 10.0 mi SE 4.6 mph - N/A   Overcast
8:40 PM 66.2 °F 59.0 °F 78% 30.38 in 10.0 mi SE 5.8 mph - N/A   Overcast
9:00 PM 66.2 °F 59.0 °F 78% 30.39 in 10.0 mi SE 5.8 mph - N/A   Overcast
9:20 PM 66.2 °F 59.0 °F 78% 30.39 in 10.0 mi SE 6.9 mph - N/A   Overcast
9:40 PM 66.2 °F 59.0 °F 78% 30.39 in 10.0 mi SE 5.8 mph - N/A   Overcast
10:00 PM 66.2 °F 59.0 °F 78% 30.39 in 10.0 mi SE 6.9 mph - N/A   Overcast
10:40 PM 66.2 °F 59.0 °F 78% 30.37 in 10.0 mi SE 8.1 mph - N/A   Overcast
11:00 PM 66.2 °F 60.8 °F 83% 30.38 in 10.0 mi SE 8.1 mph - N/A   Overcast
11:20 PM 66.2 °F 60.8 °F 83% 30.37 in 10.0 mi SE 9.2 mph - N/A   Overcast
11:40 PM 66.2 °F 60.8 °F 83% 30.36 in 10.0 mi SE 9.2 mph - N/A   Overcast